period_start,C,m1,H,J0,J1,J2,J3,J4,J5,JA,JB,JC,JD,JJ,JK,JN,#
2015-07-10 00:03:59,-0.03,0.18,0.00,29.19,32.75,34.99,4.64,25.69,1010.66,2015.28,3358.32,3226.69,3508.00,349.80,338.42,8.06,0000 0000 0000 0000 000000
2015-07-10 00:09:01,0.00,0.18,0.00,29.21,32.76,35.00,4.69,25.65,1010.73,2015.08,3358.02,3226.21,3507.99,350.16,338.68,8.09,0000 0000 0000 0000 000000
2015-07-10 00:14:02,0.01,0.18,0.00,29.24,32.77,35.00,4.64,25.62,1010.75,2015.02,3358.00,3226.02,3507.86,350.34,338.87,8.12,0000 0000 0000 0000 000000
2015-07-10 00:19:03,0.01,0.18,0.00,29.26,32.79,35.02,4.62,25.57,1010.75,2015.01,3357.98,3225.99,3507.14,350.36,338.64,8.15,0000 0000 0000 0000 000000
2015-07-10 00:24:04,0.00,0.18,0.00,29.29,32.81,35.04,4.64,25.69,1010.76,2015.00,3357.94,3225.96,3507.01,349.92,338.61,8.18,0000 0000 0000 0000 000000
2015-07-10 00:29:05,0.00,0.18,0.00,29.30,32.82,35.06,4.67,25.68,1010.76,2015.00,3357.84,3225.94,3507.00,349.49,338.18,8.21,0000 0000 0000 0000 000000
2015-07-10 00:34:07,0.07,0.18,0.00,29.32,32.85,35.08,4.69,25.63,1010.75,2015.00,3357.16,3225.18,3506.63,350.60,339.03,8.24,0000 0000 0000 0000 000000
2015-07-10 00:39:08,0.01,0.18,0.00,29.35,32.86,35.10,4.69,25.77,1010.65,2014.99,3357.00,3225.00,3506.26,350.33,338.64,8.26,0000 0000 0000 0000 000000
2015-07-10 00:44:10,0.00,0.18,0.00,29.37,32.88,35.12,4.59,25.66,1010.45,2014.98,3356.99,3225.00,3506.03,349.74,338.10,8.29,0000 0000 0000 0000 000000
2015-07-10 00:49:11,-0.00,0.18,0.00,29.39,32.90,35.15,4.66,25.63,1010.37,2014.94,3356.97,3224.98,3506.00,349.91,338.26,8.32,0000 0000 0000 0000 000000
2015-07-10 00:54:12,-0.02,0.18,0.00,29.41,32.92,35.16,4.67,25.67,1010.38,2014.85,3356.93,3224.91,3506.00,350.25,338.59,8.35,0000 0000 0000 0000 000000
2015-07-10 00:59:13,-0.02,0.18,0.00,29.43,32.94,35.18,4.61,25.62,1010.32,2014.63,3356.69,3224.67,3505.98,350.19,338.51,8.38,0000 0000 0000 0000 000000
2015-07-10 01:04:15,-0.01,0.18,0.00,29.46,32.95,35.20,4.62,25.64,1010.33,2014.27,3356.11,3224.11,3505.75,349.92,337.94,8.41,0000 0000 0000 0000 000000
2015-07-10 01:09:16,-0.01,0.18,0.00,29.48,32.97,35.22,4.68,25.62,1010.32,2014.05,3356.00,3224.00,3505.16,349.75,337.90,8.44,0000 0000 0000 0000 000000
2015-07-10 01:14:17,0.00,0.18,0.00,29.50,32.99,35.24,4.61,25.70,1010.43,2014.05,3356.00,3224.00,3505.04,349.90,337.83,8.47,0000 0000 0000 0000 000000
2015-07-10 01:19:19,-0.00,0.18,0.00,29.52,33.00,35.25,4.57,25.61,1010.30,2014.01,3355.99,3223.99,3505.00,349.47,337.52,8.50,0000 0000 0000 0000 000000
2015-07-10 01:24:20,0.01,0.18,0.00,29.54,33.02,35.27,4.60,25.60,1010.31,2014.00,3355.91,3223.91,3505.00,349.98,338.04,8.53,0000 0000 0000 0000 000000
2015-07-10 01:29:22,0.04,0.18,0.00,29.56,33.05,35.30,4.62,25.67,1010.29,2014.00,3355.45,3223.44,3504.85,350.14,338.18,8.56,0000 0000 0000 0000 000000
2015-07-10 01:34:24,0.01,0.18,0.00,29.59,33.06,35.31,4.61,25.58,1010.28,2014.00,3355.25,3223.18,3504.63,350.52,338.62,8.59,0000 0000 0000 0000 000000
2015-07-10 01:39:25,0.02,0.18,0.00,29.60,33.08,35.33,4.67,25.68,1010.27,2013.98,3355.05,3223.06,3504.19,350.21,338.24,8.62,0000 0000 0000 0000 000000
2015-07-10 01:44:26,-0.00,0.18,0.00,29.62,33.10,35.36,4.62,25.59,1010.27,2013.94,3355.00,3223.00,3504.00,350.08,338.10,8.65,0000 0000 0000 0000 000000
2015-07-10 01:49:27,-0.00,0.18,0.00,29.64,33.12,35.38,4.61,25.60,1010.27,2013.89,3355.00,3223.00,3504.00,349.98,337.92,8.67,0000 0000 0000 0000 000000
2015-07-10 01:54:28,-0.03,0.18,0.00,29.67,33.14,35.40,4.65,25.63,1010.27,2013.75,3354.99,3222.97,3504.00,350.17,337.92,8.70,0000 0000 0000 0000 000000
2015-07-10 01:59:30,-0.05,0.18,0.00,29.68,33.16,35.43,4.56,25.73,1010.27,2013.34,3354.92,3222.83,3503.95,349.89,337.81,8.73,0000 0000 0000 0000 000000
2015-07-10 02:04:31,0.00,0.18,0.00,29.71,33.18,35.45,4.62,25.67,1010.27,2013.17,3354.86,3222.54,3503.78,349.83,337.79,8.76,0000 0000 0000 0000 000000
2015-07-10 02:09:33,0.03,0.18,0.00,29.74,33.20,35.48,4.65,25.70,1010.27,2013.03,3354.40,3222.17,3503.26,350.07,337.87,8.79,0000 0000 0000 0000 000000
2015-07-10 02:14:34,0.01,0.18,0.00,29.76,33.22,35.49,4.61,25.63,1010.27,2013.01,3354.06,3222.02,3503.04,350.07,337.81,8.82,0000 0000 0000 0000 000000
2015-07-10 02:19:35,0.00,0.18,0.00,29.78,33.24,35.51,4.64,25.69,1010.26,2013.00,3354.01,3222.00,3503.00,350.25,337.93,8.85,0000 0000 0000 0000 000000
2015-07-10 02:24:36,0.00,0.18,0.00,29.80,33.25,35.53,4.63,25.59,1010.20,2013.00,3354.00,3222.00,3503.00,349.96,337.73,8.88,0000 0000 0000 0000 000000
2015-07-10 02:29:38,0.01,0.18,0.00,29.82,33.27,35.55,4.55,25.58,1009.92,2013.00,3353.98,3221.93,3502.88,349.38,337.01,8.91,0000 0000 0000 0000 000000
2015-07-10 02:34:39,0.04,0.18,0.00,29.85,33.30,35.58,4.58,25.60,1009.83,2012.97,3353.65,3221.46,3502.30,349.68,337.27,8.94,0000 0000 0000 0000 000000
2015-07-10 02:39:41,0.01,0.18,0.00,29.87,33.31,35.59,4.59,25.67,1009.82,2012.92,3353.11,3221.11,3502.04,350.32,337.97,8.97,0000 0000 0000 0000 000000
2015-07-10 02:44:42,0.01,0.18,0.00,29.90,33.33,35.62,4.65,25.61,1009.82,2012.89,3353.00,3221.00,3502.00,350.14,337.59,9.00,0000 0000 0000 0000 000000
2015-07-10 02:49:43,0.05,0.18,0.00,29.92,33.35,35.62,4.60,25.56,1009.81,2012.83,3352.74,3220.76,3501.72,349.94,337.50,9.03,0000 0000 0000 0000 000000
2015-07-10 02:54:45,-0.06,0.18,0.00,29.95,33.37,35.63,4.63,25.57,1009.80,2012.34,3352.04,3220.04,3501.02,350.17,337.36,9.06,0000 0000 0000 0000 000000
2015-07-10 02:59:46,-0.01,0.18,0.00,29.97,33.40,35.66,4.62,25.58,1009.79,2012.17,3352.00,3219.99,3500.94,349.89,337.38,9.09,0000 0000 0000 0000 000000
2015-07-10 03:04:47,0.01,0.18,0.00,30.00,33.41,35.68,4.62,25.62,1009.79,2012.08,3351.96,3219.94,3500.57,350.18,337.69,9.11,0000 0000 0000 0000 000000
2015-07-10 03:09:48,0.01,0.18,0.00,30.01,33.44,35.72,4.57,25.58,1009.79,2012.02,3351.77,3219.84,3500.13,349.90,337.11,9.14,0000 0000 0000 0000 000000
2015-07-10 03:14:50,0.04,0.19,0.00,30.03,33.46,35.78,4.65,25.63,1009.79,2012.01,3351.21,3219.35,3500.01,349.92,337.22,9.17,0000 0000 0000 0000 000000
2015-07-10 03:19:51,0.00,0.19,0.00,30.06,33.48,35.81,4.64,25.62,1009.78,2012.00,3351.01,3219.03,3500.00,349.93,337.11,9.20,0000 0000 0000 0000 000000
2015-07-10 03:24:52,0.00,0.19,0.00,30.10,33.50,35.85,4.53,25.56,1009.77,2012.00,3351.00,3219.00,3499.93,349.17,336.46,9.23,0000 0000 0000 0000 000000
2015-07-10 03:29:54,-0.00,0.19,0.00,30.13,33.52,35.88,4.57,25.60,1009.78,2012.00,3350.95,3219.00,3499.84,349.74,337.29,9.26,0000 0000 0000 0000 000000
2015-07-10 03:34:55,0.03,0.19,0.00,30.14,33.55,35.91,4.59,25.55,1009.74,2012.00,3350.49,3218.96,3499.16,350.29,337.63,9.29,0000 0000 0000 0000 000000
2015-07-10 03:39:56,0.03,0.19,0.00,30.16,33.57,35.92,4.63,25.70,1009.76,2011.95,3350.04,3218.43,3499.01,349.91,337.11,9.32,0000 0000 0000 0000 000000
2015-07-10 03:44:58,-0.00,0.19,0.00,30.19,33.59,35.94,4.57,25.57,1009.78,2011.88,3350.00,3218.06,3498.96,349.37,336.52,9.35,0000 0000 0000 0000 000000
2015-07-10 03:49:59,-0.07,0.19,0.00,30.21,33.61,35.99,4.61,25.51,1009.76,2011.53,3349.94,3218.00,3498.59,350.05,337.13,9.38,0000 0000 0000 0000 000000
2015-07-10 03:55:00,-0.00,0.19,0.00,30.24,33.63,36.01,4.59,25.55,1009.54,2011.25,3349.79,3217.99,3498.13,350.10,336.87,9.41,0000 0000 0000 0000 000000
2015-07-10 04:00:01,-0.00,0.19,0.00,30.26,33.65,36.03,4.66,25.54,1009.34,2011.10,3349.24,3217.95,3498.01,350.36,337.34,9.44,0000 0000 0000 0000 000000
2015-07-10 04:05:03,0.02,0.19,0.00,30.28,33.67,36.05,4.66,25.50,1009.30,2011.02,3349.03,3217.58,3497.98,350.25,337.01,9.47,0000 0000 0000 0000 000000
2015-07-10 04:10:04,0.01,0.19,0.00,30.31,33.70,36.08,4.60,25.56,1009.30,2011.00,3349.00,3217.05,3497.74,349.87,336.70,9.49,0000 0000 0000 0000 000000
2015-07-10 04:15:05,0.01,0.19,0.00,30.34,33.72,36.10,4.60,25.58,1009.30,2011.00,3348.99,3217.02,3497.35,349.95,336.74,9.52,0000 0000 0000 0000 000000
2015-07-10 04:20:06,0.00,0.19,0.00,30.36,33.74,36.12,4.66,25.57,1009.30,2010.99,3348.95,3217.00,3497.11,350.04,336.86,9.55,0000 0000 0000 0000 000000
2015-07-10 04:25:08,0.01,0.19,0.00,30.37,33.76,36.15,4.64,25.50,1009.29,2010.97,3348.43,3216.98,3497.01,350.06,336.74,9.58,0000 0000 0000 0000 000000
2015-07-10 04:30:09,0.01,0.19,0.00,30.40,33.79,36.18,4.56,25.54,1009.29,2010.93,3348.02,3216.82,3497.00,349.98,336.65,9.61,0000 0000 0000 0000 000000
2015-07-10 04:35:10,0.02,0.19,0.00,30.42,33.81,36.20,4.63,25.56,1009.30,2010.88,3348.00,3216.29,3496.96,349.55,336.41,9.64,0000 0000 0000 0000 000000
2015-07-10 04:40:11,-0.06,0.19,0.00,30.45,33.83,36.22,4.64,25.59,1009.29,2010.38,3347.71,3216.02,3496.23,350.41,337.11,9.67,0000 0000 0000 0000 000000
2015-07-10 04:45:13,0.00,0.19,0.00,30.47,33.85,36.24,4.54,25.48,1009.29,2010.16,3347.19,3216.00,3496.01,349.47,336.24,9.70,0000 0000 0000 0000 000000
2015-07-10 04:50:14,-0.00,0.19,0.00,30.49,33.87,36.27,4.67,25.55,1009.28,2010.09,3347.01,3215.98,3495.99,350.46,337.13,9.73,0000 0000 0000 0000 000000
2015-07-10 04:55:15,0.02,0.19,0.00,30.51,33.90,36.29,4.66,25.52,1009.27,2010.02,3346.99,3215.67,3495.93,350.13,336.70,9.76,0000 0000 0000 0000 000000
2015-07-10 05:00:16,0.02,0.19,0.00,30.54,33.92,36.31,4.63,25.49,1009.24,2010.00,3346.93,3215.17,3495.50,350.17,336.65,9.79,0000 0000 0000 0000 000000
2015-07-10 05:05:17,0.01,0.19,0.00,30.55,33.94,36.33,4.62,25.55,1009.11,2010.00,3346.89,3215.05,3495.15,350.55,337.13,9.82,0000 0000 0000 0000 000000
2015-07-10 05:10:19,0.03,0.19,0.00,30.57,33.96,36.36,4.65,25.55,1008.92,2009.99,3346.17,3215.00,3495.01,350.37,336.58,9.85,0000 0000 0000 0000 000000
2015-07-10 05:15:20,-0.00,0.19,0.00,30.60,33.99,36.38,4.62,25.52,1008.88,2009.96,3346.00,3214.97,3494.99,349.98,336.43,9.88,0000 0000 0000 0000 000000
2015-07-10 05:20:21,0.06,0.19,0.00,30.62,34.01,36.40,4.60,25.52,1008.86,2009.85,3345.56,3214.47,3494.41,350.02,336.40,9.90,0000 0000 0000 0000 000000
2015-07-10 05:25:23,-0.01,0.19,0.00,30.64,34.03,36.43,4.66,25.45,1008.84,2009.61,3345.01,3213.88,3493.52,350.45,336.58,9.93,0000 0000 0000 0000 000000
2015-07-10 05:30:24,-0.02,0.19,0.00,30.66,34.05,36.45,4.60,25.53,1008.82,2009.23,3344.79,3213.31,3493.08,350.14,336.52,9.96,0000 0000 0000 0000 000000
2015-07-10 05:35:26,0.01,0.19,0.00,30.70,34.07,36.46,4.55,25.52,1008.81,2009.04,3344.08,3213.01,3493.00,349.60,336.14,9.99,0000 0000 0000 0000 000000
2015-07-10 05:40:27,0.01,0.19,0.00,30.71,34.10,36.47,4.63,25.55,1008.81,2009.01,3344.00,3212.99,3492.78,350.43,336.67,10.02,0000 0000 0000 0000 000000
2015-07-10 05:45:28,0.01,0.19,0.00,30.74,34.12,36.50,4.62,25.52,1008.81,2009.00,3343.97,3212.92,3492.29,350.04,336.17,10.05,0000 0000 0000 0000 000000
2015-07-10 05:50:29,0.03,0.19,0.00,30.76,34.14,36.52,4.62,25.51,1008.81,2009.00,3343.65,3212.48,3492.04,350.15,336.41,10.08,0000 0000 0000 0000 000000
2015-07-10 05:55:30,0.02,0.19,0.00,30.78,34.16,36.54,4.60,25.57,1008.81,2008.99,3343.13,3212.09,3492.00,350.22,336.19,10.11,0000 0000 0000 0000 000000
2015-07-10 06:00:32,0.00,0.19,0.00,30.81,34.19,36.55,4.65,25.48,1008.82,2008.99,3343.00,3212.00,3491.98,350.04,336.17,10.14,0000 0000 0000 0000 000000
2015-07-10 06:05:33,0.00,0.19,0.00,30.84,34.21,36.55,4.63,25.46,1008.80,2008.94,3342.90,3211.99,3491.57,350.49,336.69,10.17,0000 0000 0000 0000 000000
2015-07-10 06:10:34,0.01,0.19,0.00,30.86,34.23,36.58,4.62,25.55,1008.80,2008.73,3342.24,3211.80,3491.03,350.07,336.18,10.20,0000 0000 0000 0000 000000
2015-07-10 06:15:35,-0.05,0.19,0.00,30.89,34.25,36.59,4.59,25.49,1008.81,2008.34,3342.00,3211.17,3490.97,349.64,335.82,10.23,0000 0000 0000 0000 000000
2015-07-10 06:20:36,0.02,0.19,0.00,30.91,34.28,36.61,4.55,25.33,1008.80,2008.08,3341.68,3211.00,3490.32,349.93,335.93,10.26,0000 0000 0000 0000 000000
2015-07-10 06:25:38,0.00,0.19,0.00,30.94,34.30,36.64,4.60,25.44,1008.80,2008.01,3341.12,3210.97,3490.01,350.26,336.05,10.29,0000 0000 0000 0000 000000
2015-07-10 06:30:39,0.01,0.19,0.00,30.96,34.32,36.67,4.57,25.44,1008.81,2008.00,3340.99,3210.74,3489.99,349.51,335.59,10.32,0000 0000 0000 0000 000000
2015-07-10 06:35:40,0.03,0.19,0.00,30.99,34.35,36.69,4.62,25.49,1008.82,2008.00,3340.94,3210.32,3489.75,349.77,335.97,10.34,0000 0000 0000 0000 000000
2015-07-10 06:40:42,0.04,0.20,0.00,31.01,34.37,36.73,4.67,25.59,1008.82,2007.99,3340.22,3210.01,3489.09,349.91,335.80,10.37,0000 0000 0000 0000 000000
2015-07-10 06:45:43,-0.00,0.20,0.00,31.04,34.40,36.76,4.60,25.52,1008.82,2007.97,3340.05,3209.99,3489.00,349.63,335.62,10.40,0000 0000 0000 0000 000000
2015-07-10 06:50:44,-0.00,0.20,0.00,31.06,34.42,36.78,4.60,25.41,1008.81,2007.87,3340.00,3209.93,3488.98,349.91,335.63,10.43,0000 0000 0000 0000 000000
2015-07-10 06:55:45,-0.06,0.19,0.00,31.09,34.44,36.81,4.61,25.44,1008.81,2007.50,3339.99,3209.59,3488.69,349.92,335.75,10.46,0000 0000 0000 0000 000000
2015-07-10 07:00:46,0.00,0.19,0.00,31.12,34.46,36.84,4.59,25.52,1008.81,2007.13,3339.73,3209.08,3488.11,349.61,335.43,10.49,0000 0000 0000 0000 000000
2015-07-10 07:05:48,0.00,0.19,0.00,31.16,34.49,36.85,4.64,25.49,1008.84,2007.05,3339.40,3209.01,3488.03,350.17,336.06,10.52,0000 0000 0000 0000 000000
2015-07-10 07:10:48,-0.00,0.19,0.00,31.19,34.51,36.87,4.64,25.48,1008.94,2007.01,3339.04,3209.00,3488.00,350.57,336.22,10.55,0000 0000 0000 0000 000000
2015-07-10 07:15:50,0.00,0.19,0.00,31.23,34.53,36.89,4.53,25.40,1009.17,2007.00,3339.00,3208.97,3487.98,350.00,335.81,10.58,0000 0000 0000 0000 000000
2015-07-10 07:20:51,0.08,0.20,0.00,31.26,34.56,36.91,4.57,25.42,1009.20,2007.00,3338.49,3208.39,3487.32,349.69,335.51,10.61,0000 0000 0000 0000 000000
2015-07-10 07:25:52,0.01,0.20,0.00,31.29,34.58,36.94,4.63,25.48,1009.05,2006.99,3338.03,3208.01,3487.01,349.85,335.55,10.64,0000 0000 0000 0000 000000
2015-07-10 07:30:54,0.02,0.20,0.00,31.33,34.60,36.96,4.61,25.44,1008.85,2006.97,3337.90,3207.86,3486.78,349.54,335.17,10.67,0000 0000 0000 0000 000000
2015-07-10 07:35:55,0.05,0.20,0.00,31.36,34.62,36.98,4.61,25.38,1008.85,2006.90,3337.15,3207.11,3486.03,350.49,335.87,10.70,0000 0000 0000 0000 000000
2015-07-10 07:40:56,-0.03,0.20,0.00,31.40,34.65,37.00,4.60,25.52,1008.93,2006.66,3337.00,3207.00,3485.94,350.29,335.79,10.72,0000 0000 0000 0000 000000
2015-07-10 07:45:57,0.14,0.20,0.00,31.44,34.67,37.02,4.64,25.32,1008.97,2006.45,3336.36,3206.21,3484.97,350.33,335.83,10.75,0000 0000 0000 0000 000000
2015-07-10 07:50:58,-0.10,0.20,0.00,31.46,34.70,37.05,4.58,25.44,1009.03,2006.17,3335.97,3205.87,3484.33,349.75,335.24,10.78,0000 0000 0000 0000 000000
2015-07-10 07:55:59,0.01,0.20,0.00,31.48,34.72,37.07,4.57,25.47,1009.11,2006.04,3335.89,3205.53,3484.04,349.61,335.38,10.81,0000 0000 0000 0000 000000
2015-07-10 08:01:00,0.02,0.20,0.00,31.51,34.75,37.08,4.59,25.43,1008.99,2006.02,3335.30,3205.12,3484.00,349.95,335.23,10.84,0000 0000 0000 0000 000000
2015-07-10 08:06:02,0.01,0.20,0.00,31.55,34.77,37.11,4.57,25.34,1008.82,2006.00,3335.00,3205.00,3483.87,350.00,335.34,10.87,0000 0000 0000 0000 000000
2015-07-10 08:11:03,0.02,0.20,0.00,31.59,34.80,37.14,4.58,25.37,1008.82,2006.00,3334.90,3204.98,3483.28,350.09,335.42,10.90,0000 0000 0000 0000 000000
2015-07-10 08:16:04,0.03,0.20,0.00,31.63,34.83,37.16,4.54,25.39,1008.81,2006.00,3334.30,3204.68,3483.00,349.22,334.39,10.93,0000 0000 0000 0000 000000
2015-07-10 08:21:05,0.01,0.20,0.00,31.67,34.86,37.20,4.62,25.37,1008.82,2005.96,3334.01,3204.07,3482.88,350.18,335.35,10.96,0000 0000 0000 0000 000000
2015-07-10 08:26:06,0.01,0.20,0.00,31.71,34.88,37.23,4.53,25.40,1008.82,2005.83,3333.71,3204.00,3482.16,349.60,334.81,10.99,0000 0000 0000 0000 000000
2015-07-10 08:31:08,-0.01,0.20,0.00,31.74,34.91,37.25,4.62,25.31,1008.83,2005.66,3333.19,3203.95,3482.01,349.96,335.06,11.02,0000 0000 0000 0000 000000
2015-07-10 08:36:09,-0.03,0.20,0.00,31.76,34.94,37.29,4.63,25.38,1008.84,2005.28,3333.00,3203.44,3481.97,350.31,335.45,11.05,0000 0000 0000 0000 000000
2015-07-10 08:41:10,0.02,0.20,0.00,31.77,34.96,37.31,4.54,25.43,1008.84,2005.04,3332.51,3203.02,3481.34,349.55,334.82,11.08,0000 0000 0000 0000 000000
2015-07-10 08:46:12,0.00,0.20,0.00,31.81,34.99,37.34,4.57,25.39,1008.91,2005.00,3332.03,3202.97,3481.00,350.20,335.27,11.11,0000 0000 0000 0000 000000
2015-07-10 08:51:12,0.02,0.20,0.00,31.82,35.02,37.36,4.61,25.40,1008.94,2005.00,3331.98,3202.67,3480.94,349.99,335.13,11.13,0000 0000 0000 0000 000000
2015-07-10 08:56:14,0.06,0.21,0.00,31.85,35.05,37.38,4.55,25.43,1008.99,2004.99,3331.44,3202.07,3480.36,349.95,334.90,11.16,0000 0000 0000 0000 000000
2015-07-10 09:01:15,0.01,0.21,0.00,31.88,35.08,37.41,4.56,25.33,1009.07,2004.97,3331.02,3202.00,3480.01,349.54,334.71,11.19,0000 0000 0000 0000 000000
2015-07-10 09:06:16,-0.02,0.21,0.00,31.91,35.11,37.44,4.60,25.33,1009.08,2004.84,3330.95,3201.92,3479.95,350.29,335.26,11.22,0000 0000 0000 0000 000000
2015-07-10 09:11:17,0.01,0.21,0.00,31.93,35.13,37.47,4.59,25.28,1009.20,2004.56,3330.44,3201.48,3479.56,349.71,334.65,11.25,0000 0000 0000 0000 000000
2015-07-10 09:16:19,-0.02,0.21,0.00,31.96,35.16,37.50,4.62,25.26,1009.26,2004.21,3330.03,3201.04,3479.05,350.72,335.87,11.28,0000 0000 0000 0000 000000
2015-07-10 09:21:20,-0.01,0.20,0.00,31.99,35.19,37.52,4.58,25.29,1009.16,2004.07,3329.99,3201.00,3478.99,350.56,335.60,11.31,0000 0000 0000 0000 000000
2015-07-10 09:26:21,0.04,0.20,0.00,32.02,35.22,37.55,4.60,25.29,1009.15,2004.01,3329.40,3200.88,3478.56,349.79,334.75,11.34,0000 0000 0000 0000 000000
2015-07-10 09:31:23,0.04,0.21,0.00,32.05,35.25,37.57,4.59,25.30,1009.07,2004.00,3329.01,3200.19,3478.03,350.40,335.18,11.37,0000 0000 0000 0000 000000
2015-07-10 09:36:24,0.00,0.21,0.00,32.07,35.27,37.60,4.59,25.38,1009.05,2004.00,3328.84,3200.00,3477.97,350.34,334.96,11.40,0000 0000 0000 0000 000000
2015-07-10 09:41:25,0.03,0.21,0.00,32.11,35.30,37.62,4.59,25.41,1009.24,2003.89,3328.08,3199.91,3477.18,350.44,335.24,11.43,0000 0000 0000 0000 000000
2015-07-10 09:46:26,0.01,0.21,0.00,32.13,35.33,37.65,4.64,25.33,1009.26,2003.82,3328.00,3199.53,3477.02,350.16,335.00,11.46,0000 0000 0000 0000 000000
2015-07-10 09:51:28,-0.06,0.21,0.00,32.16,35.36,37.68,4.55,25.25,1009.28,2003.36,3327.96,3199.06,3477.00,349.59,334.30,11.49,0000 0000 0000 0000 000000
2015-07-10 09:56:29,-0.01,0.21,0.00,32.19,35.39,37.70,4.59,25.32,1009.25,2003.07,3327.40,3199.00,3476.63,350.18,334.73,11.52,0000 0000 0000 0000 000000
2015-07-10 10:01:30,0.01,0.21,0.00,32.22,35.41,37.73,4.66,25.19,1009.15,2003.00,3327.01,3198.96,3476.03,350.43,335.12,11.55,0000 0000 0000 0000 000000
2015-07-10 10:06:31,0.07,0.21,0.00,32.25,35.45,37.76,4.52,25.22,1008.99,2003.00,3326.63,3198.32,3475.59,349.57,334.22,11.57,0000 0000 0000 0000 000000
2015-07-10 10:11:33,0.01,0.21,0.00,32.28,35.47,37.77,4.60,25.46,1008.84,2003.00,3326.02,3198.00,3475.03,350.03,334.80,11.60,0000 0000 0000 0000 000000
2015-07-10 10:16:34,-0.00,0.21,0.00,32.31,35.51,37.80,4.54,25.32,1008.86,2002.95,3325.99,3197.85,3474.97,349.79,334.31,11.63,0000 0000 0000 0000 000000
2015-07-10 10:21:35,0.02,0.21,0.00,32.33,35.54,37.83,4.54,25.35,1008.83,2002.80,3325.76,3197.27,3474.62,349.55,334.25,11.66,0000 0000 0000 0000 000000
2015-07-10 10:26:36,-0.04,0.21,0.00,32.37,35.57,37.86,4.53,25.38,1008.90,2002.22,3325.06,3196.88,3473.93,350.19,334.60,11.69,0000 0000 0000 0000 000000
2015-07-10 10:31:36,0.04,0.21,0.00,32.40,35.60,37.87,4.57,25.34,1009.18,2002.03,3324.47,3196.13,3473.13,350.20,334.80,11.72,0000 0000 0000 0000 000000
2015-07-10 10:36:38,0.01,0.21,0.00,32.42,35.63,37.91,4.58,25.32,1009.19,2002.00,3324.03,3196.00,3473.00,350.17,334.51,11.75,0000 0000 0000 0000 000000
2015-07-10 10:41:39,0.01,0.21,0.00,32.45,35.66,37.93,4.54,25.43,1009.28,2002.00,3323.93,3195.89,3472.69,349.78,334.27,11.78,0000 0000 0000 0000 000000
2015-07-10 10:46:40,0.06,0.21,0.00,32.47,35.70,37.96,4.60,25.28,1009.29,2001.98,3323.45,3195.37,3472.11,350.26,334.86,11.81,0000 0000 0000 0000 000000
2015-07-10 10:51:41,-0.02,0.21,0.00,32.50,35.73,37.98,4.58,25.31,1009.29,2001.88,3323.01,3195.01,3472.00,350.30,334.82,11.84,0000 0000 0000 0000 000000
2015-07-10 10:56:43,0.01,0.21,0.00,32.53,35.76,38.03,4.56,25.32,1009.29,2001.52,3322.57,3194.56,3471.28,349.87,334.30,11.87,0000 0000 0000 0000 000000
2015-07-10 11:01:44,-0.02,0.21,0.00,32.56,35.79,38.09,4.50,25.32,1009.29,2001.08,3322.01,3194.00,3470.79,349.50,333.99,11.90,0000 0000 0000 0000 000000
2015-07-10 11:06:45,0.05,0.21,0.00,32.60,35.83,38.13,4.56,25.20,1009.29,2001.00,3321.56,3193.65,3470.06,350.11,334.49,11.93,0000 0000 0000 0000 000000
2015-07-10 11:11:46,0.02,0.21,0.00,32.63,35.86,38.17,4.59,25.27,1009.29,2001.00,3321.05,3193.14,3469.98,350.17,334.45,11.95,0000 0000 0000 0000 000000
2015-07-10 11:16:47,0.01,0.21,0.00,32.66,35.89,38.20,4.54,25.22,1009.29,2000.98,3320.99,3193.00,3469.65,349.96,334.16,11.98,0000 0000 0000 0000 000000
2015-07-10 11:21:49,0.02,0.21,0.00,32.69,35.92,38.21,4.56,25.25,1009.30,2000.92,3320.70,3192.97,3469.08,349.96,334.19,12.01,0000 0000 0000 0000 000000
2015-07-10 11:26:50,-0.02,0.22,0.00,32.71,35.96,38.23,4.57,25.16,1009.30,2000.60,3320.03,3192.37,3468.89,350.12,334.30,12.04,0000 0000 0000 0000 000000
2015-07-10 11:31:51,-0.03,0.21,0.00,32.73,35.99,38.27,4.63,25.22,1009.31,2000.14,3319.92,3192.01,3468.23,350.07,334.28,12.07,0000 0000 0000 0000 000000
2015-07-10 11:36:52,0.01,0.21,0.00,32.75,36.02,38.31,4.57,25.27,1009.31,2000.02,3319.19,3191.96,3468.00,350.09,334.34,12.10,0000 0000 0000 0000 000000
2015-07-10 11:41:54,0.06,0.22,0.00,32.76,36.05,38.35,4.55,25.18,1009.31,2000.00,3318.89,3191.31,3467.40,350.25,334.36,12.13,0000 0000 0000 0000 000000
2015-07-10 11:46:55,0.03,0.22,0.00,32.77,36.07,38.39,4.57,25.31,1009.31,2000.00,3318.22,3191.00,3467.01,349.78,333.96,12.16,0000 0000 0000 0000 000000
2015-07-10 11:51:56,-0.00,0.22,0.00,32.75,36.10,38.43,4.57,25.27,1009.30,1999.99,3318.01,3191.00,3466.99,350.25,334.43,12.19,0000 0000 0000 0000 000000
2015-07-10 11:56:58,0.02,0.22,0.00,32.73,36.12,38.47,4.58,25.27,1009.31,1999.91,3317.82,3190.79,3466.47,349.81,334.07,12.22,0000 0000 0000 0000 000000
2015-07-10 12:01:59,0.04,0.22,0.00,32.70,36.14,38.49,4.52,25.18,1009.30,1999.80,3317.21,3190.22,3466.02,349.79,334.03,12.25,0000 0000 0000 0000 000000
2015-07-10 12:07:00,-0.02,0.22,0.00,32.67,36.16,38.52,4.61,25.25,1009.31,1999.64,3317.02,3190.04,3465.99,350.17,334.47,12.28,0000 0000 0000 0000 000000
2015-07-10 12:12:01,-0.04,0.22,0.00,32.65,36.18,38.54,4.56,25.21,1009.32,1999.27,3316.79,3189.99,3465.67,350.14,334.44,12.31,0000 0000 0000 0000 000000
2015-07-10 12:17:02,0.02,0.22,0.00,32.61,36.18,38.57,4.62,25.22,1009.31,1999.10,3316.10,3189.89,3465.10,350.36,334.59,12.34,0000 0000 0000 0000 000000
2015-07-10 12:22:04,0.02,0.22,0.00,32.60,36.20,38.58,4.62,25.27,1009.32,1999.01,3315.98,3189.35,3465.00,350.03,334.48,12.36,0000 0000 0000 0000 000000
2015-07-10 12:27:05,0.04,0.22,0.00,32.58,36.20,38.58,4.58,25.25,1009.30,1999.00,3315.46,3189.02,3464.72,350.33,334.48,12.39,0000 0000 0000 0000 000000
2015-07-10 12:32:06,0.01,0.22,0.00,32.57,36.22,38.59,4.55,25.22,1009.29,1999.00,3315.01,3189.00,3464.08,349.83,334.21,12.42,0000 0000 0000 0000 000000
2015-07-10 12:37:07,0.00,0.22,0.00,32.57,36.23,38.58,4.60,25.25,1009.29,1999.00,3314.91,3188.95,3464.00,350.24,334.63,12.45,0000 0000 0000 0000 000000
2015-07-10 12:42:09,0.05,0.22,0.00,32.57,36.23,38.59,4.52,25.20,1009.30,1998.99,3314.15,3188.38,3463.90,349.48,333.63,12.48,0000 0000 0000 0000 000000
2015-07-10 12:47:10,0.01,0.22,0.00,32.57,36.24,38.59,4.60,25.23,1009.30,1998.99,3314.00,3188.10,3463.52,350.04,334.39,12.51,0000 0000 0000 0000 000000
2015-07-10 12:52:11,0.01,0.22,0.00,32.57,36.25,38.59,4.62,25.27,1009.29,1998.97,3313.98,3188.01,3463.09,350.61,334.88,12.54,0000 0000 0000 0000 000000
2015-07-10 12:57:13,0.01,0.22,0.00,32.58,36.25,38.59,4.61,25.15,1009.29,1998.92,3313.60,3188.00,3463.00,350.39,334.51,12.57,0000 0000 0000 0000 000000
2015-07-10 13:02:14,0.01,0.22,0.00,32.57,36.25,38.58,4.58,25.27,1009.29,1998.93,3313.12,3188.00,3462.98,350.18,334.32,12.60,0000 0000 0000 0000 000000